Weather History for KRUGER MPUMALAN, South Africa

Change the Weather History Date:

Wednesday, February 19, 2014

  Actual Average Record
Temperature  
Mean Temperature 86 °F -  
Max Temperature 109 °F - - ()
Min Temperature 64 °F - - ()
Cooling Degree Days 22    
Growing Degree Days 36 (Base 50)    
Moisture  
Dew Point 70 °F    
Average Humidity 70    
Maximum Humidity 94    
Minimum Humidity 43    
Precipitation  
Precipitation 0.00 in - - ()
Sea Level Pressure  
Sea Level Pressure 30.03 in    
Wind  
Wind Speed 4 mph ()    
Max Wind Speed 13 mph    
Max Gust Speed -    
Visibility 5.5 miles    
Events Fog    
T = Trace of Precipitation, MM = Missing Value Source: Averaged Metar Reports

Daily Weather History Graph

Daily Weather History Graph

Search for Another Location

Airport:

Trip Planner

Search our weather history database for the weather conditions in past years. The results will help you decide how hot, cold, wet, or windy it might be!

Date:

Astronomy

Feb. 19, 2014 Rise Set
Actual Time 5:43 AM SAST 6:34 PM SAST
Civil Twilight 5:20 AM SAST 6:58 PM SAST
Nautical Twilight 4:52 AM SAST 7:25 PM SAST
Astronomical Twilight 4:24 AM SAST 7:54 PM SAST
Moon 9:11 PM SAST (2/19) 9:24 AM SAST (2/19)
Length of Visible Light 13h 37m
Length of Day
12h 50m
Waning Gibbous, 82% of the Moon is Illuminated
Feb 19
Waning Gibbous
Feb 22
Last Quarter
Mar 1
New
Mar 8
First Quarter
Mar 16
Full

Hourly Weather History & Observations

Time (SAST) Temp. Heat Index Dew Point Humidity Pressure Visibility Wind Dir Wind Speed Gust Speed Precip Events Conditions
12:00 AM 68.0 °F - 64.4 °F 88% 30.09 in - NE 2.3 mph - N/A   Unknown
1:00 AM 68.0 °F - 64.4 °F 88% 30.06 in - SE 1.2 mph - N/A   Unknown
2:00 AM 66.2 °F - 62.6 °F 88% 30.06 in - East 3.5 mph - N/A   Unknown
3:00 AM 64.4 °F - 62.6 °F 94% 30.06 in - ENE 6.9 mph - N/A   Unknown
4:00 AM 64.4 °F - 62.6 °F 94% 30.06 in - NE 6.9 mph - N/A   Unknown
5:00 AM 64.4 °F - 62.6 °F 94% 30.06 in 3.1 mi NE 3.5 mph - N/A Fog Patches of Fog
6:00 AM 64.4 °F - 62.6 °F 94% 30.09 in 4.3 mi West 1.2 mph - N/A Fog Light Drizzle
7:00 AM 66.2 °F - 62.6 °F 88% 30.09 in 6.2 mi West 2.3 mph - N/A   Scattered Clouds
8:00 AM 69.8 °F - 62.6 °F 78% 30.09 in 6.2 mi SW 5.8 mph - N/A   Scattered Clouds
9:00 AM 73.4 °F - 62.6 °F 69% 30.09 in 6.2 mi WSW 5.8 mph - N/A   Scattered Clouds
10:00 AM 78.8 °F - 62.6 °F 57% 30.06 in 6.2 mi South 2.3 mph - N/A   Scattered Clouds
11:00 AM 87.8 °F 92.6 °F 69.8 °F 55% 30.06 in - SSE 3.5 mph - N/A   Unknown
12:00 PM 107.6 °F 139.9 °F 84.2 °F 48% 30.04 in - ESE 3.5 mph - N/A   Unknown
1:00 PM 104.0 °F 128.0 °F 80.6 °F 48% 30.01 in - East 8.1 mph - N/A   Unknown
2:00 PM 109.4 °F 146.3 °F 86.0 °F 48% 29.98 in - ENE 8.1 mph - N/A   Unknown
3:00 PM 98.6 °F 109.2 °F 73.4 °F 44% 29.98 in - ENE 6.9 mph - N/A   Unknown
4:00 PM 105.8 °F 127.2 °F 78.8 °F 43% 29.95 in - East 8.1 mph - N/A   Unknown
5:00 PM 104.0 °F 124.4 °F 78.8 °F 45% 29.95 in - East 6.9 mph - N/A   Unknown
6:00 PM 100.4 °F 126.1 °F 82.4 °F 56% 29.95 in - East 10.4 mph - N/A   Unknown
7:00 PM 98.6 °F 132.9 °F 86.0 °F 67% 29.98 in - East 12.7 mph - N/A   Unknown
8:00 PM 73.4 °F - 62.6 °F 69% 30.01 in 6.2 mi ENE 11.5 mph - N/A   Partly Cloudy
9:00 PM 84.2 °F 92.3 °F 75.2 °F 74% 30.01 in - ENE 10.4 mph - N/A   Unknown
10:00 PM 80.6 °F 85.4 °F 73.4 °F 79% 30.01 in - ENE 8.1 mph - N/A   Unknown
11:00 PM 71.6 °F - 64.4 °F 78% 29.98 in - NE 3.5 mph - N/A   Unknown